Location: Newark
(37.8333°N, 119.5000°W)
Time: 12:57:59
(UTC+00:00)

Tiros 1 despin weight - Pass Details

Date: 25 August 2019
Orbit: 593 x 643 km, 48.2° (Epoch: 22 October)

Event Time Altitude Azimuth Distance (km) Brightness Sun altitude
Rises 12:36:16 0° 301° (WNW) 2,881 ? -9.4°
Reaches altitude 10° 12:38:35 10° 298° (WNW) 1,982 ? -9.0°
Maximum altitude 12:43:04 60° 219° (SW) 714 ? -8.2°
Drops below altitude 10° 12:47:37 10° 139° (SE) 2,003 ? -7.3°
Sets 12:49:58 0° 136° (SE) 2,915 ? -6.9°
